[[{"header":{"parameterUnit":"m.s-1","parameterCategory":1,"la1":30.2991,"la2":30.254,"lo1":-89.0895,"lo2":-89.0444,"dy":0.0017,"dx":0.0017,"nx":28,"ny":28,"refTime":"2024-04-15T21:00:00:Z","depth":0,"parameterNumber":2,"parameterNumberName":"U-component_of_WINDS"},"data":[0,0,0,0,0,0,0,0,0,0,0,0,0,0,0,0,0,0,0,0,0,0,0,0,0,0,0,0,0,0,0,0,0,0,0,0,0,0,0,0,0,0,0,0,0,0,0,0,0,0,0,0,0,0,0,0,0,0,-2.4233,-2.4233,0,-2.4186,-2.4185,-2.4185,-2.413,-2.4129,-2.4128,-2.4128,-2.4075,-2.4075,-2.4074,0,0,0,0,0,0,0,0,0,0,0,0,0,-2.4274,-2.4274,-2.4233,-2.4233,-2.4232,-2.4186,-2.4185,-2.4184,-2.413,-2.4129,-2.4128,-2.4127,-2.4075,-2.4075,-2.4074,0,0,0,0,0,0,0,0,0,0,0,0,0,-2.4244,-2.4273,-2.4233,-2.4199,-2.4196,-2.4186,-2.4185,-2.4184,-2.413,-2.4129,-2.4128,-2.4127,-2.4076,-2.4075,-2.4074,-2.4092,0,0,-2.4071,-2.407,0,0,0,0,0,0,0,0,-2.4246,-2.4243,-2.4205,-2.4202,-2.4198,-2.4163,-2.418,-2.4153,-2.4131,-2.4155,-2.4128,-2.4126,-2.4105,-2.4102,-2.4095,-2.409,-2.4087,-2.4071,-2.407,-2.407,-2.4069,0,0,0,0,0,0,0,-2.4248,-2.4245,-2.4214,-2.4204,-2.42,-2.4186,-2.418,-2.4175,-2.4137,-2.4153,-2.4149,-2.4144,-2.4103,-2.4096,-2.4094,-2.4087,-2.4071,-2.407,-2.4069,-2.4069,-2.4094,-2.4095,0,0,0,0,0,0,-2.4256,-2.4247,-2.4216,-2.4213,-2.422,-2.4186,-2.418,-2.4175,-2.4137,-2.413,-2.4145,-2.4142,-2.4098,-2.4095,-2.4091,-2.411,-2.407,-2.4069,-2.4068,-2.4093,-2.4094,-2.4096,0,0,0,0,0,0,-2.4257,-2.4254,-2.4218,-2.4229,-2.4223,-2.4187,-2.4182,-2.4175,-2.4168,-2.4132,-2.4124,-2.4146,-2.4097,-2.4093,-2.4093,-2.4108,-2.4068,-2.4068,-2.4091,-2.4093,-2.4095,-2.4148,0,0,0,0,0,0,-2.4258,-2.4254,-2.4261,-2.4229,-2.4223,-2.4221,-2.4183,-2.4175,-2.4167,-2.4162,-2.413,-2.4123,-2.4096,-2.4094,-2.4092,-2.4106,-2.4067,-2.409,-2.4092,-2.4094,-2.4145,-2.4152,-2.4158,0,0,0,0,0,-2.426,-2.4277,-2.4262,-2.4259,-2.4231,-2.4222,-2.4218,-2.4187,-2.4169,-2.4175,-2.4152,-2.4124,-2.4107,-2.4095,-2.4091,-2.4105,-2.4089,-2.4092,-2.4094,-2.4142,-2.415,-2.4157,0,0,0,0,0,0,-2.4311,-2.4272,-2.4255,-2.4263,-2.4246,-2.4212,-2.4219,-2.4197,-2.4184,-2.4179,-2.4141,-2.4134,-2.4138,-2.4122,-2.4109,-2.4121,-2.4094,-2.4096,-2.4132,-2.4139,-2.4145,-2.4148,-2.4066,0,0,0,0,0,-2.4323,-2.432,-2.4286,-2.4296,-2.4289,-2.4256,-2.4251,-2.4229,-2.4209,-2.4201,-2.4178,-2.4159,-2.4149,-2.4143,-2.4132,-2.4143,-2.4135,-2.4151,-2.4157,-2.4163,-2.4164,-2.4169,-2.4175,-2.4105,-2.4105,-2.4105,0,0,-2.4348,-2.4327,-2.4326,-2.4306,-2.429,-2.4287,-2.425,-2.4248,-2.4244,-2.4201,-2.4199,-2.4182,-2.4158,-2.4164,-2.4165,-2.415,-2.4183,-2.4166,-2.4171,-2.4169,-2.4172,-2.4179,-2.4185,-2.4107,-2.4106,-2.4106,0,0,-2.4391,-2.4375,-2.4382,-2.4368,-2.4345,-2.4323,-2.4325,-2.4296,-2.4283,-2.4281,-2.4248,-2.4244,-2.4228,-2.4212,-2.4202,-2.4242,-2.4216,-2.424,-2.4272,-2.4276,-2.4282,-2.4286,-2.43,-2.4305,-2.4242,-2.4242,-2.4242,0,-2.4424,-2.4418,-2.4388,-2.4388,-2.438,-2.4342,-2.4348,-2.4335,-2.431,-2.4305,-2.4289,-2.4269,-2.425,-2.4252,-2.4262,-2.4255,-2.4255,-2.4242,-2.4284,-2.4288,-2.4292,-2.4304,-2.4309,-2.4245,-2.4245,-2.4244,-2.4244,0,-2.446,-2.4457,-2.4465,-2.4443,-2.4436,-2.4439,-2.4408,-2.4404,-2.4384,-2.4364,-2.4363,-2.434,-2.4323,-2.4322,-2.4301,-2.4321,-2.4312,-2.4291,-2.4262,-2.4302,-2.4313,-2.4317,-2.4249,-2.4248,-2.4247,-2.4246,0,0,-2.4532,-2.4495,-2.4498,-2.4488,-2.4461,-2.4457,-2.4459,-2.4445,-2.4442,-2.4426,-2.4426,-2.4415,-2.4395,-2.4384,-2.4361,-2.4365,-2.4398,-2.4343,-2.4342,-2.4353,-2.4417,-2.4433,-2.4439,-2.4382,-2.4382,-2.4383,-2.4419,0,-2.457,-2.4571,-2.4544,-2.4552,-2.4548,-2.4513,-2.4515,-2.4498,-2.448,-2.4473,-2.4453,-2.4445,-2.442,-2.4413,-2.4416,-2.4393,-2.441,-2.4391,-2.4379,-2.4379,-2.4385,-2.4444,-2.446,-2.4495,-2.4423,-2.4424,-2.4424,0,-2.4613,-2.4601,-2.461,-2.4584,-2.4581,-2.4583,-2.4568,-2.4563,-2.4543,-2.4529,-2.4518,-2.4493,-2.4492,-2.4467,-2.4464,-2.4452,-2.4446,-2.4434,-2.4435,-2.4431,-2.4403,-2.4441,-2.4506,-2.451,-2.4431,-2.443,-2.443,0,-2.4664,-2.465,-2.4653,-2.4646,-2.4616,-2.4618,-2.4605,-2.4584,-2.4578,-2.4565,-2.456,-2.4547,-2.4539,-2.4529,-2.45,-2.4485,-2.4501,-2.4473,-2.4488,-2.4489,-2.4492,-2.4492,-2.4555,-2.4491,-2.449,-2.449,-2.449,0,-2.4708,-2.4714,-2.4676,-2.4678,-2.4684,-2.4653,-2.4659,-2.4643,-2.4626,-2.4623,-2.4592,-2.459,-2.4554,-2.4547,-2.4525,-2.4526,-2.4523,-2.4511,-2.4505,-2.4513,-2.4515,-2.4508,-2.4504,-2.4492,-2.4491,-2.4491,-2.4491,0,-2.4764,-2.4739,-2.474,-2.4712,-2.4706,-2.4711,-2.4687,-2.4687,-2.4668,-2.4665,-2.4662,-2.4631,-2.4623,-2.4594,-2.4578,-2.4563,-2.457,-2.4559,-2.4577,-2.4573,-2.459,-2.4588,-2.4649,-2.4655,-2.4589,-2.4589,-2.459,0,-2.4793,-2.4797,-2.4771,-2.4767,-2.4756,-2.4752,-2.4745,-2.4715,-2.471,-2.4689,-2.4691,-2.4681,-2.467,-2.4658,-2.4633,-2.4621,-2.4608,-2.4631,-2.4606,-2.4614,-2.4607,-2.4607,-2.4607,-2.4636,-2.4636,-2.4637,-2.4638,0,-2.4847,-2.4835,-2.4828,-2.4816,-2.481,-2.4799,-2.4786,-2.4785,-2.4752,-2.4747,-2.4739,-2.4731,-2.4716,-2.4705,-2.4689,-2.4674,-2.465,-2.4646,-2.4649,-2.4657,-2.4666,-2.466,-2.459,-2.4644,-2.4644,-2.4643,-2.4643,-2.4643,-2.489,-2.4892,-2.4874,-2.4867,-2.4855,-2.4844,-2.4843,-2.4824,-2.4817,-2.4803,-2.4786,-2.4779,-2.476,-2.4736,-2.4724,-2.4718,-2.4705,-2.4709,-2.471,-2.4711,-2.4715,-2.4669,-2.4715,-2.4715,-2.4715,-2.4714,-2.4714,0,-2.4942,-2.4929,-2.4923,-2.4907,-2.4901,-2.4881,-2.4867,-2.4863,-2.4858,-2.4843,-2.4834,-2.4824,-2.4814,-2.479,-2.4777,-2.4777,-2.4766,-2.4774,-2.4773,-2.477,-2.4727,-2.4726,-2.4784,-2.4784,-2.4784,-2.4784,-2.4784,-2.4784,-2.4968,-2.4971,-2.4957,-2.4953,-2.4939,-2.4934,-2.4927,-2.4917,-2.4905,-2.4896,-2.4888,-2.4873,-2.4854,-2.484,-2.4829,-2.4822,-2.4818,-2.4831,-2.482,-2.478,-2.4773,-2.4767,-2.4765,-2.4831,-2.4831,-2.4863,-2.4864,-2.4864]},{"header":{"parameterUnit":"m.s-1","parameterCategory":1,"la1":30.2991,"la2":30.254,"lo1":-89.0895,"lo2":-89.0444,"dy":0.0017,"dx":0.0017,"nx":28,"ny":28,"refTime":"2024-04-15T21:00:00:Z","depth":0,"parameterNumber":3,"parameterNumberName":"V-component_of_WINDS"},"data":[0,0,0,0,0,0,0,0,0,0,0,0,0,0,0,0,0,0,0,0,0,0,0,0,0,0,0,0,0,0,0,0,0,0,0,0,0,0,0,0,0,0,0,0,0,0,0,0,0,0,0,0,0,0,0,0,0,0,3.1681,3.1681,0,3.1712,3.1712,3.1713,3.1753,3.1754,3.1755,3.1755,3.1785,3.1785,3.1785,0,0,0,0,0,0,0,0,0,0,0,0,0,3.1656,3.1656,3.1681,3.1681,3.1682,3.1712,3.1713,3.1713,3.1753,3.1754,3.1755,3.1756,3.1785,3.1785,3.1785,0,0,0,0,0,0,0,0,0,0,0,0,0,3.1675,3.1656,3.1681,3.1706,3.1708,3.1712,3.1713,3.1713,3.1753,3.1754,3.1755,3.1756,3.1784,3.1785,3.1785,3.1766,0,0,3.1786,3.1786,0,0,0,0,0,0,0,0,3.1674,3.1676,3.1702,3.1704,3.1707,3.173,3.1714,3.1731,3.1753,3.1736,3.1755,3.1756,3.1765,3.1767,3.1771,3.1768,3.1769,3.1786,3.1786,3.1786,3.1786,0,0,0,0,0,0,0,3.1672,3.1675,3.1693,3.1702,3.1705,3.1715,3.1719,3.1718,3.1745,3.1737,3.174,3.1744,3.1767,3.1771,3.1772,3.1769,3.1786,3.1786,3.1786,3.1786,3.1755,3.1754,0,0,0,0,0,0,3.1668,3.1673,3.1692,3.1694,3.1692,3.1715,3.1719,3.1721,3.1745,3.1749,3.1743,3.1745,3.177,3.1772,3.1773,3.1755,3.1786,3.1786,3.1786,3.1756,3.1755,3.1754,0,0,0,0,0,0,3.1667,3.1669,3.1691,3.1685,3.1688,3.1714,3.1717,3.1722,3.1725,3.1749,3.1754,3.1742,3.177,3.1773,3.1768,3.1756,3.1786,3.1786,3.1757,3.1756,3.1754,3.1716,0,0,0,0,0,0,3.1666,3.1668,3.1662,3.1684,3.1688,3.1686,3.1716,3.1721,3.1726,3.1729,3.1749,3.1753,3.1771,3.1768,3.1769,3.1757,3.1787,3.1759,3.1757,3.1755,3.1719,3.1714,3.171,0,0,0,0,0,3.1665,3.1649,3.1661,3.1663,3.1681,3.1685,3.1688,3.171,3.1724,3.1718,3.1734,3.1752,3.1757,3.1767,3.1768,3.1757,3.1759,3.1757,3.1755,3.1721,3.1715,3.171,0,0,0,0,0,0,3.1622,3.1652,3.1666,3.1657,3.1668,3.1692,3.1685,3.1702,3.1709,3.1712,3.1739,3.1743,3.1736,3.1746,3.1756,3.1741,3.1761,3.1759,3.1735,3.1729,3.1725,3.1723,3.1787,0,0,0,0,0,3.1612,3.1614,3.164,3.1629,3.1634,3.1658,3.1661,3.1677,3.169,3.1695,3.171,3.1721,3.1726,3.1728,3.1733,3.172,3.1726,3.1713,3.1708,3.1704,3.1703,3.1699,3.1694,3.1747,3.1747,3.1747,0,0,3.1591,3.1607,3.1606,3.1621,3.1632,3.1633,3.1662,3.1662,3.1663,3.1695,3.1693,3.1704,3.1718,3.1711,3.1708,3.1719,3.1689,3.1702,3.1698,3.1699,3.1696,3.1691,3.1687,3.1745,3.1746,3.1746,0,0,3.1553,3.1565,3.1558,3.1569,3.1586,3.1603,3.1601,3.1623,3.1632,3.163,3.1655,3.1656,3.1663,3.1673,3.1679,3.1647,3.1665,3.1647,3.1623,3.1619,3.1615,3.1611,3.1601,3.1597,3.1645,3.1645,3.1645,0,3.1524,3.1527,3.1552,3.1552,3.1558,3.1588,3.1582,3.1591,3.1608,3.1611,3.1623,3.1634,3.1645,3.1641,3.1634,3.1637,3.1637,3.1645,3.1614,3.161,3.1607,3.1598,3.1594,3.1643,3.1643,3.1644,3.1644,0,3.1492,3.1494,3.1487,3.1504,3.151,3.1506,3.153,3.1533,3.1549,3.1564,3.1563,3.1578,3.1588,3.1588,3.1603,3.1587,3.1593,3.1609,3.163,3.16,3.1592,3.1588,3.164,3.1641,3.1641,3.1642,0,0,3.1427,3.146,3.1457,3.1467,3.1488,3.149,3.1488,3.1499,3.1501,3.1512,3.1512,3.1518,3.1534,3.154,3.1557,3.1553,3.1529,3.157,3.157,3.1563,3.1514,3.1503,3.1498,3.1541,3.154,3.154,3.1513,0,3.1394,3.1394,3.1417,3.141,3.1414,3.1443,3.1442,3.1455,3.1469,3.1474,3.149,3.1494,3.1513,3.1518,3.1516,3.1532,3.152,3.1534,3.1541,3.1541,3.1538,3.1494,3.1481,3.1455,3.151,3.1509,3.1509,0,3.1355,3.1366,3.136,3.1384,3.1387,3.1385,3.1398,3.1402,3.1418,3.1429,3.1437,3.1457,3.1457,3.1477,3.1478,3.1488,3.1492,3.1501,3.15,3.1503,3.1524,3.1496,3.1448,3.1444,3.1504,3.1504,3.1505,0,3.1311,3.1324,3.1323,3.1329,3.1357,3.1355,3.1367,3.1384,3.1389,3.14,3.1405,3.1415,3.1421,3.1428,3.145,3.1462,3.145,3.1471,3.146,3.1459,3.1456,3.1456,3.1409,3.1457,3.1457,3.1457,3.1457,0,3.1272,3.1268,3.1304,3.1303,3.1299,3.1326,3.1321,3.1335,3.135,3.1353,3.1378,3.138,3.1409,3.1414,3.1431,3.1431,3.1433,3.1442,3.1447,3.1441,3.144,3.1444,3.1447,3.1456,3.1456,3.1456,3.1456,0,3.1222,3.1246,3.1247,3.1273,3.128,3.1276,3.1299,3.1299,3.1316,3.1319,3.1322,3.1348,3.1356,3.1378,3.1391,3.1403,3.1398,3.1406,3.1393,3.1396,3.1384,3.1386,3.134,3.1336,3.1384,3.1384,3.1383,0,3.1197,3.1194,3.1221,3.1226,3.1236,3.1242,3.1249,3.1275,3.1281,3.13,3.1299,3.1309,3.1319,3.133,3.135,3.136,3.137,3.1353,3.1371,3.1366,3.1371,3.1372,3.1372,3.1349,3.1348,3.1348,3.1347,0,3.1149,3.1162,3.117,3.1184,3.1191,3.1203,3.1216,3.1217,3.1247,3.1253,3.1262,3.1269,3.1284,3.1294,3.1308,3.1319,3.1339,3.1341,3.134,3.1333,3.1327,3.1332,3.1383,3.1342,3.1343,3.1343,3.1343,3.1344,3.1112,3.1112,3.1132,3.1141,3.1154,3.1166,3.1169,3.1186,3.1195,3.1209,3.1224,3.1232,3.125,3.1271,3.1281,3.1288,3.1298,3.1295,3.1294,3.1294,3.1291,3.1325,3.129,3.129,3.1291,3.1291,3.1291,0,3.1067,3.1082,3.109,3.1109,3.1116,3.1135,3.115,3.1156,3.1162,3.1178,3.1187,3.1198,3.1209,3.123,3.1243,3.1244,3.1253,3.1246,3.1247,3.125,3.1281,3.1282,3.1239,3.1239,3.1239,3.1239,3.1239,3.1239,3.1045,3.1047,3.1062,3.107,3.1085,3.1094,3.1101,3.1113,3.1125,3.1137,3.1146,3.1161,3.1179,3.1193,3.1204,3.121,3.1214,3.1204,3.1213,3.1242,3.1247,3.1252,3.1253,3.1205,3.1205,3.1182,3.1182,3.1182]}]]